Tracking 29892 objects as of 21-Nov-2024
HD Live streaming from Space Station
objects crossing your sky now

STARLINK-5141

Track STARLINK-5141 now!
10-day predictions
STARLINK-5141 is classified as:


NORAD ID: 55500
Int'l Code: 2023-015BD
Perigee: 565.1 km
Apogee: 567.3 km
Inclination: 43.0 °
Period: 95.8 minutes
Semi major axis: 6937 km
RCS: Unknown
Launch date: February 2, 2023
Source: United States (US)
Launch site: AIR FORCE EASTERN TEST RANGE (AFETR)
Your satellite tracking list
Your tracking list is empty




NASA's NSSDC Master Catalog

Two Line Element Set (TLE):
1 55500U 23015BD  24325.67253982 -.00000202  00000-0  13087-6 0  9994
2 55500  43.0061  34.2970 0001594 265.1668  94.8993 15.02542077 99305
Source of the keplerian elements: AFSPC